Location: Sternwarte ZA, Rosenfeld-Brittheim
(48.2889°N, 8.6789°E)
Time: 18:14:41
(UTC+01:00)

ISS - Pass Details

Date: 20 May 2017
Orbit: 403 x 406 km, 51.6° (Epoch: 15 December)

Event Time Altitude Azimuth Distance (km) Brightness Sun altitude
Exits shadow 02:17:22 42° 295° (WNW) 610 -2.9 -20.6°
Maximum altitude 02:18:11 56° 347° (NNW) 501 -3.2 -20.6°
Drops below altitude 10° 02:21:29 10° 67° (ENE) 1,491 -0.5 -20.4°
Sets 02:23:36 0° 72° (ENE) 2,351 0.5 -20.3°
